ASTRA 2A

Last updated on Jan. 19, 2020, 4:37 a.m. UTC

1 25462U 98050A   20018.54123800 -.00000310  00000-0  00000-0 0  9990
2 25462   1.2715  94.8502 0002981 195.2146 122.1761  1.00274608 22881
UTC
Height (km)
Latitude
Longitude
Inclination
Orbital Period
UTC large
Height (km)
Speed (km/s)
/
Latitude / Longitude
Inclination (degrees)
Orbital Period (minutes)
Azimuth
Elevation
Range (km)
Doppler Factor
iOS Compass Heading
iOS Angle

Next 30 passes for location: Hong Kong

Rise time Rise Azimuth (degrees) Set time Set Azimuth (degrees) Duration Max altitude (degrees)

No matching passes for this satellites